ASIASAT 9

Last updated on Thu Oct 30 2025 00:02:51 GMT+0000 (Coordinated Universal Time)

1 42942U 17057A 25302.56667154 -.00000350 00000+0 00000+0 0 9990 2 42942 0.0132 257.1743 0002428 319.5174 147.5920 1.00275720 29546
UTC large
Height (km)
Speed (km/s)
/
Latitude / Longitude
Inclination (degrees)
Orbital Period (minutes)
Azimuth
Elevation
Range (km)
Doppler Factor

Next 0 passes for location: London (51.5072 / 0.1276)

Sorry there are no passes over London.